EW8926 Weather Reports


Display with metric or nautical units.
time (UTC)temp
F
wind
direction
speed
MPH
gust
MPH
rain 1hr
in
rain 24hr
in
rain mn
in
humidity
%
barometer
mb
20260502212609 57 166 2.0 3.0 0.00 0.00 0.00 52 1022.1
20260502212104 57 134 2.0 5.0 0.00 0.00 0.00 53 1022.1
20260502211604 57 130 2.0 5.0 0.00 0.00 0.00 53 1022.1
20260502210604 57 121 2.0 3.0 0.00 0.00 0.00 53 1022.1
20260502210104 57 117 2.0 3.0 0.00 0.00 0.00 53 1022.1
20260502205604 57 109 2.0 3.0 0.00 0.00 0.00 53 1022.1
20260502205103 57 114 2.0 3.0 0.00 0.00 0.00 53 1022.1
20260502204603 57 119 2.0 3.0 0.00 0.00 0.00 53 1022.1
20260502203607 57 127 1.0 3.0 0.00 0.00 0.00 54 1022.2
20260502203104 57 127 1.0 2.0 0.00 0.00 0.00 54 1022.2
20260502202604 58 127 0.0 2.0 0.00 0.00 0.00 54 1022.2
20260502202104 58 127 0.0 2.0 0.00 0.00 0.00 53 1022.2
20260502201604 58 127 0.0 0.0 0.00 0.00 0.00 52 1022.2
20260502201104 59 127 2.0 1.0 0.00 0.00 0.00 52 1022.1
20260502200604 59 127 2.0 2.0 0.00 0.00 0.00 51 1022.0
20260502200103 59 127 2.0 2.0 0.00 0.00 0.00 51 1022.0
20260502195609 59 127 2.0 3.0 0.00 0.00 0.00 51 1021.9
20260502195104 60 121 2.0 3.0 0.00 0.00 0.00 51 1021.8
20260502194604 60 121 2.0 2.0 0.00 0.00 0.00 50 1021.8
20260502194104 60 121 2.0 3.0 0.00 0.00 0.00 49 1021.7
20260502193604 60 133 2.0 3.0 0.00 0.00 0.00 49 1021.7
20260502193106 60 133 2.0 3.0 0.00 0.00 0.00 49 1021.7
20260502192603 61 133 2.0 3.0 0.00 0.00 0.00 48 1021.6
20260502192104 61 136 2.0 2.0 0.00 0.00 0.00 48 1021.6
20260502191607 61 135 2.0 2.0 0.00 0.00 0.00 47 1021.6
20260502191104 61 144 2.0 2.0 0.00 0.00 0.00 47 1021.5
20260502190604 62 131 2.0 3.0 0.00 0.00 0.00 46 1021.5
20260502190104 62 131 2.0 3.0 0.00 0.00 0.00 45 1021.5
20260502185604 62 131 2.0 3.0 0.00 0.00 0.00 44 1021.4
20260502185109 63 127 2.0 2.0 0.00 0.00 0.00 44 1021.4
20260502184604 63 127 2.0 2.0 0.00 0.00 0.00 43 1021.4
20260502184104 63 126 3.0 3.0 0.00 0.00 0.00 42 1021.4
20260502183604 64 124 3.0 5.0 0.00 0.00 0.00 42 1021.4
20260502183104 64 126 3.0 6.0 0.00 0.00 0.00 41 1021.4
20260502182604 65 124 3.0 6.0 0.00 0.00 0.00 41 1021.4
20260502181604 66 127 2.0 5.0 0.00 0.00 0.00 40 1021.4
20260502180604 67 120 2.0 5.0 0.00 0.00 0.00 40 1021.3
20260502180104 67 121 3.0 5.0 0.00 0.00 0.00 40 1021.3
20260502170104 72 133 5.0 9.0 0.00 0.00 0.00 36 1021.2
20260502164109 74 144 5.0 8.0 0.00 0.00 0.00 35 1021.3
20260502163604 74 127 5.0 8.0 0.00 0.00 0.00 35 1021.3
20260502163104 75 129 3.0 9.0 0.00 0.00 0.00 35 1021.3
20260502162604 75 129 2.0 8.0 0.00 0.00 0.00 35 1021.4
20260502162104 76 127 2.0 5.0 0.00 0.00 0.00 34 1021.5
20260502161604 76 113 2.0 6.0 0.00 0.00 0.00 32 1021.5
20260502161104 76 130 2.0 6.0 0.00 0.00 0.00 32 1021.6
20260502160604 76 142 2.0 5.0 0.00 0.00 0.00 32 1021.7
20260502160104 76 117 2.0 5.0 0.00 0.00 0.00 32 1021.7
20260502152104 76 133 2.0 5.0 0.00 0.00 0.00 29 1022.1
20260502151604 77 130 2.0 6.0 0.00 0.00 0.00 29 1022.1
20260502150104 76 41 2.0 3.0 0.00 0.00 0.00 30 1022.3
20260502140104 76 56 2.0 8.0 0.00 0.00 0.00 29 1023.2
20260502130604 74 269 2.0 5.0 0.00 0.00 0.00 31 1024.2
20260502130104 74 300 2.0 5.0 0.00 0.00 0.00 31 1024.2
20260502123603 74 81 2.0 5.0 0.00 0.00 0.00 32 1024.6
20260502123104 74 119 2.0 5.0 0.00 0.00 0.00 31 1024.6
20260502122604 74 173 2.0 3.0 0.00 0.00 0.00 31 1024.7
20260502122104 74 297 2.0 5.0 0.00 0.00 0.00 33 1024.8
20260502121607 73 112 2.0 7.0 0.00 0.00 0.00 32 1024.8
20260502121105 73 328 2.0 7.0 0.00 0.00 0.00 33 1024.9
20260502120606 73 319 2.0 6.0 0.00 0.00 0.00 34 1025.0
20260502120104 73 287 3.0 6.0 0.00 0.00 0.00 33 1025.0
20260502115605 72 284 3.0 5.0 0.00 0.00 0.00 33 1025.2
20260502115103 72 356 2.0 6.0 0.00 0.00 0.00 35 1025.3
20260502114605 72 307 2.0 7.0 0.00 0.00 0.00 34 1025.3
20260502114104 73 324 2.0 5.0 0.00 0.00 0.00 34 1025.4
20260502113604 72 335 2.0 5.0 0.00 0.00 0.00 34 1025.4
20260502113104 72 308 2.0 5.0 0.00 0.00 0.00 34 1025.4
20260502112603 72 130 2.0 5.0 0.00 0.00 0.00 34 1025.6
20260502112107 71 135 2.0 5.0 0.00 0.00 0.00 34 1025.7
20260502111604 71 225 2.0 6.0 0.00 0.00 0.00 33 1025.7
20260502111104 71 304 2.0 6.0 0.00 0.00 0.00 32 1025.9
20260502110104 71 81 2.0 5.0 0.00 0.00 0.00 35 1026.0
20260502105104 71 314 2.0 6.0 0.00 0.00 0.00 34 1026.1
20260502104604 71 307 2.0 6.0 0.00 0.00 0.00 35 1026.1
20260502104107 71 11 2.0 6.0 0.00 0.00 0.00 35 1026.3
20260502103604 71 49 2.0 3.0 0.00 0.00 0.00 37 1026.4
20260502103104 71 332 2.0 5.0 0.00 0.00 0.00 39 1026.4
20260502102603 70 112 2.0 5.0 0.00 0.00 0.00 39 1026.5
20260502102104 69 249 2.0 5.0 0.00 0.00 0.00 39 1026.6
20260502101605 69 253 2.0 5.0 0.00 0.00 0.00 40 1026.6
20260502101107 69 316 2.0 5.0 0.00 0.00 0.00 40 1026.7
20260502100604 68 349 2.0 6.0 0.00 0.00 0.00 38 1026.8
20260502100104 68 316 2.0 5.0 0.00 0.00 0.00 40 1026.8
20260502091104 65 300 2.0 5.0 0.00 0.00 0.00 53 1027.6
20260502090605 65 308 2.0 5.0 0.00 0.00 0.00 55 1027.6
20260502090103 65 314 2.0 5.0 0.00 0.00 0.00 54 1027.6
20260502071105 56 308 2.0 3.0 0.00 0.00 0.00 69 1027.9
20260502070604 56 312 2.0 5.0 0.00 0.00 0.00 68 1027.9
20260502070104 56 306 2.0 5.0 0.00 0.00 0.00 68 1027.9
20260502065104 57 331 2.0 5.0 0.00 0.00 0.00 68 1027.9
20260502064604 57 304 2.0 5.0 0.00 0.00 0.00 66 1027.9
20260502064104 57 317 2.0 5.0 0.00 0.00 0.00 67 1027.9
20260502063605 57 316 1.0 5.0 0.00 0.00 0.00 67 1027.9
20260502063105 56 5 2.0 3.0 0.00 0.00 0.00 65 1027.9
20260502062105 55 129 2.0 3.0 0.00 0.00 0.00 69 1028.0
20260502061604 54 129 2.0 3.0 0.00 0.00 0.00 70 1028.0
20260502061104 53 129 2.0 3.0 0.00 0.00 0.00 73 1027.9
20260502060604 52 124 2.0 3.0 0.00 0.00 0.00 74 1027.9
20260502060104 51 127 2.0 2.0 0.00 0.00 0.00 76 1027.9
20260502055607 50 127 2.0 3.0 0.00 0.00 0.00 78 1027.9
20260502055105 49 133 2.0 3.0 0.00 0.00 0.00 80 1027.9
20260502054604 48 134 2.0 3.0 0.00 0.00 0.00 82 1027.9
20260502054104 48 131 2.0 3.0 0.00 0.00 0.00 85 1027.8
20260502053604 47 132 2.0 5.0 0.00 0.00 0.00 85 1027.8
20260502053105 47 140 2.0 3.0 0.00 0.00 0.00 87 1027.8
20260502052604 46 144 2.0 3.0 0.00 0.00 0.00 88 1027.7
20260502052106 45 150 1.0 3.0 0.00 0.00 0.00 88 1027.7
20260502051605 45 154 1.0 2.0 0.00 0.00 0.00 88 1027.7
20260502051104 44 154 1.0 2.0 0.00 0.00 0.00 88 1027.7
20260502050604 44 154 0.0 2.0 0.00 0.00 0.00 89 1027.7
20260502045104 43 154 0.0 0.0 0.00 0.00 0.00 88 1027.6
20260502044604 42 154 0.0 0.0 0.00 0.00 0.00 88 1027.6
20260502044104 42 154 0.0 0.0 0.00 0.00 0.00 88 1027.6
20260502043604 42 154 0.0 1.0 0.00 0.00 0.00 87 1027.6
20260502042604 42 154 1.0 2.0 0.00 0.00 0.00 87 1027.5
20260502042104 43 154 1.0 2.0 0.00 0.00 0.00 86 1027.5
20260502040604 43 154 0.0 0.0 0.00 0.00 0.00 86 1027.5
20260502040105 43 154 0.0 0.0 0.00 0.00 0.00 86 1027.5
20260502035604 43 154 0.0 0.0 0.00 0.00 0.00 85 1027.4
20260502035104 43 154 0.0 0.0 0.00 0.00 0.00 85 1027.3
20260502034604 44 154 0.0 0.0 0.00 0.00 0.00 84 1027.3
20260502034103 44 154 0.0 0.0 0.00 0.00 0.00 84 1027.3
20260502033604 44 154 0.0 0.0 0.00 0.00 0.00 83 1027.3
20260502033104 44 154 0.0 0.0 0.00 0.00 0.00 83 1027.3
20260502032604 44 154 0.0 0.0 0.00 0.00 0.00 83 1027.3
20260502031605 45 154 0.0 0.0 0.00 0.00 0.00 82 1027.3
20260502031104 45 154 0.0 0.0 0.00 0.00 0.00 82 1027.3
20260502030605 45 154 0.0 0.0 0.00 0.00 0.00 82 1027.3
20260502030104 45 154 0.0 0.0 0.00 0.00 0.00 81 1027.3
20260502025105 45 154 0.0 2.0 0.00 0.00 0.00 81 1027.3
20260502024604 45 154 0.0 2.0 0.00 0.00 0.00 81 1027.3
20260502024104 45 153 0.0 0.0 0.00 0.00 0.00 81 1027.3
20260502023605 45 153 0.0 0.0 0.00 0.00 0.00 81 1027.3
20260502023104 45 153 2.0 0.0 0.00 0.00 0.00 81 1027.3
20260502022104 46 154 2.0 2.0 0.00 0.00 0.00 81 1027.2
20260502021604 45 154 2.0 3.0 0.00 0.00 0.00 81 1027.2
20260502021104 45 154 2.0 3.0 0.00 0.00 0.00 81 1027.1
20260502020604 45 148 2.0 2.0 0.00 0.00 0.00 81 1027.1
20260502015604 45 130 2.0 3.0 0.00 0.00 0.00 82 1027.2
20260502015104 45 129 2.0 2.0 0.00 0.00 0.00 82 1027.2
20260502014603 45 129 2.0 3.0 0.00 0.00 0.00 82 1027.2
20260502014104 45 132 2.0 2.0 0.00 0.00 0.00 82 1027.2
20260502013104 45 132 2.0 3.0 0.00 0.00 0.00 83 1027.2
20260502012604 45 143 2.0 3.0 0.00 0.00 0.00 83 1027.2
20260502012104 45 143 2.0 3.0 0.00 0.00 0.00 83 1027.2
20260502011604 44 142 2.0 2.0 0.00 0.00 0.00 83 1027.2
20260502011104 44 135 2.0 2.0 0.00 0.00 0.00 83 1027.2
20260502010604 45 135 2.0 3.0 0.00 0.00 0.00 83 1027.2
20260502005605 45 148 2.0 3.0 0.00 0.00 0.00 83 1027.2
20260502005104 45 136 2.0 5.0 0.00 0.00 0.00 83 1027.2
20260502004606 45 156 2.0 3.0 0.00 0.00 0.00 83 1027.2
20260502004104 45 137 2.0 3.0 0.00 0.00 0.00 82 1027.3
20260502002604 45 140 2.0 3.0 0.00 0.00 0.00 82 1027.4
20260502001104 45 136 2.0 3.0 0.00 0.00 0.00 82 1027.4
20260502000604 45 131 2.0 3.0 0.00 0.00 0.00 82 1027.4
20260502000104 45 131 2.0 3.0 0.00 0.00 0.00 81 1027.4
20260501235604 46 134 2.0 3.0 0.00 0.00 0.00 79 1027.4
20260501235103 46 138 2.0 3.0 0.00 0.00 0.00 79 1027.4
20260501234103 47 305 1.0 3.0 0.00 0.00 0.00 78 1027.4
20260501233605 47 305 0.0 2.0 0.00 0.00 0.00 78 1027.4
20260501233103 47 305 0.0 2.0 0.00 0.00 0.00 77 1027.4
20260501232603 48 305 0.0 2.0 0.00 0.00 0.00 76 1027.4
20260501232103 48 305 0.0 2.0 0.00 0.00 0.00 76 1027.4
20260501231103 49 305 1.0 0.0 0.00 0.00 0.00 74 1027.4
20260501225103 49 272 1.0 3.0 0.00 0.00 0.00 73 1027.2
20260501224603 49 182 1.0 2.0 0.00 0.00 0.00 73 1027.2
20260501224103 50 182 1.0 2.0 0.00 0.00 0.00 73 1027.2
20260501223604 50 182 1.0 2.0 0.00 0.00 0.00 72 1027.2
20260501223104 50 181 1.0 2.0 0.00 0.00 0.00 73 1027.2
20260501222603 49 181 1.0 2.0 0.00 0.00 0.00 73 1027.1
20260501222103 49 183 2.0 2.0 0.00 0.00 0.00 74 1027.0
20260501221603 49 184 2.0 2.0 0.00 0.00 0.00 73 1027.0
20260501221104 50 122 2.0 5.0 0.00 0.00 0.00 73 1027.0
20260501220603 50 125 2.0 3.0 0.00 0.00 0.00 73 1027.0
20260501215105 50 144 1.0 2.0 0.00 0.00 0.00 73 1026.9
20260501214606 50 150 1.0 2.0 0.00 0.00 0.00 73 1026.9
20260501214104 50 150 2.0 2.0 0.00 0.00 0.00 73 1026.9
20260501213603 50 150 2.0 2.0 0.00 0.00 0.00 74 1026.9
20260501213103 50 150 1.0 2.0 0.00 0.00 0.00 74 1026.9